カタログに戻る

ONEWEB-0289

運用中通信PO
NORAD 49079·PAYLOAD·🇬🇧 United Kingdom

打ち上げ Aug 21, 2021 から Baikonur Cosmodrome

Loading…

次のパス (今後24時間)

TLE

最新Source: CelesTrak SupGP

元期: Sep 14, 2026, 17:57 UTC

1 49079C 21075E   26257.74809446  .00000729  00000+0  18806-2 0  2577
2 49079  87.9190 348.0965 0001502  97.0405 328.9245 13.17648590    11

AllMySatでONEWEB-0289をリアルタイム追跡

Download on the App Store